Location: Constantia
(34.0183°S, 18.4411°E)
Time: 20:17:50
(UTC+00:00)

Okean O Rocket - Pass Details

Date: 17 February 2020
Orbit: 622 x 645 km, 98.2° (Epoch: 29 March)

Event Time Altitude Azimuth Distance (km) Brightness Sun altitude
Rises 03:40:19 0° 15° (NNE) 2,891 4.9 -9.1°
Reaches altitude 10° 03:42:29 10° 16° (NNE) 1,993 4.1 -8.7°
Maximum altitude 03:46:50 84° 103° (ESE) 639 1.7 -7.9°
Drops below altitude 10° 03:51:15 10° 191° (S) 2,028 4.3 -7.0°
Sets 03:53:28 0° 191° (S) 2,946 5.2 -6.6°
